Weather History for KNPA - February, 2013

Change the Weather History Date:

Tuesday, February 12, 2013

  Actual Average Record
Temperature  
Mean Temperature 60 °F -  
Max Temperature 69 °F 63 °F 73 °F (2000)
Min Temperature 51 °F 45 °F 26 °F (2011)
Degree Days  
Heating Degree Days 5    
Growing Degree Days 10 (Base 50)    
Moisture  
Dew Point 60 °F    
Average Humidity 92    
Maximum Humidity 100    
Minimum Humidity 54    
Precipitation  
Precipitation 0.01 in - - ()
Sea Level Pressure  
Sea Level Pressure 29.92 in    
Wind  
Wind Speed 9 mph (East)    
Max Wind Speed 18 mph    
Max Gust Speed 28 mph    
Visibility 8 miles    
Events Rain    
Averages and records for this station are not official NWS values.
T = Trace of Precipitation, MM = Missing Value Source: NWS Daily Summary

Daily Weather History Graph

Daily Weather History Graph

Search for Another Location

Airport or City:

Trip Planner

Search our weather history database for the weather conditions in past years. The results will help you decide how hot, cold, wet, or windy it might be!

Date:

Astronomy

Feb. 12, 2013 Rise Set
Actual Time 6:31 AM CST 5:35 PM CST
Civil Twilight 6:07 AM CST 6:00 PM CST
Nautical Twilight 5:39 AM CST 6:28 PM CST
Astronomical Twilight 5:11 AM CST 6:56 PM CST
Moon 7:43 AM CST (2/12) 8:18 PM CST (2/12)
Length of Visible Light 11h 52m
Length of Day
11h 03m
Waxing Crescent, 7% of the Moon is Illuminated
Feb 12
Waxing Crescent
Feb 17
First Quarter
Feb 25
Full
Mar 4
Last Quarter
Mar 11
New

Hourly Weather History & Observations

Time (CST) Temp. Dew Point Humidity Pressure Visibility Wind Dir Wind Speed Gust Speed Precip Events Conditions
12:56 AM 60.1 °F 57.0 °F 90% 30.04 in 10.0 mi NE 5.8 mph - N/A   Mostly Cloudy
1:30 AM 59.0 °F 55.4 °F 88% 30.04 in 10.0 mi NNE 5.8 mph - N/A   Mostly Cloudy
1:52 AM 60.8 °F 55.4 °F 82% 30.03 in 10.0 mi NNE 5.8 mph - N/A   Mostly Cloudy
1:56 AM 60.1 °F 55.9 °F 86% 30.04 in 10.0 mi NNE 5.8 mph - N/A   Mostly Cloudy
2:49 AM 57.2 °F 55.4 °F 94% 30.02 in 10.0 mi NE 4.6 mph - N/A   Scattered Clouds
2:56 AM 57.9 °F 55.0 °F 90% 30.03 in 10.0 mi NE 4.6 mph - N/A   Partly Cloudy
3:16 AM 59.0 °F 55.4 °F 88% 30.02 in 10.0 mi NNE 3.5 mph - N/A   Mostly Cloudy
3:49 AM 57.2 °F 55.4 °F 94% 30.01 in 10.0 mi NNE 4.6 mph - N/A   Scattered Clouds
3:56 AM 57.9 °F 55.9 °F 93% 30.02 in 10.0 mi North 5.8 mph - N/A   Partly Cloudy
4:23 AM 57.2 °F 55.4 °F 94% 30.02 in 10.0 mi NNW 4.6 mph - N/A   Mostly Cloudy
4:56 AM 57.9 °F 55.9 °F 93% 30.02 in 10.0 mi North 8.1 mph - N/A   Overcast
5:56 AM 57.9 °F 55.9 °F 93% 30.01 in 10.0 mi NE 10.4 mph - N/A   Overcast
6:56 AM 59.0 °F 57.0 °F 93% 30.01 in 10.0 mi ENE 11.5 mph - N/A   Overcast
7:20 AM 59.0 °F 57.2 °F 94% 30.01 in 10.0 mi ENE 6.9 mph - N/A   Overcast
7:56 AM 60.1 °F 57.0 °F 90% 30.01 in 10.0 mi NE 8.1 mph - N/A   Overcast
8:44 AM 60.8 °F 57.2 °F 88% 30.00 in 10.0 mi East 9.2 mph - N/A   Overcast
8:56 AM 60.1 °F 57.9 °F 93% 30.01 in 10.0 mi ENE 9.2 mph - N/A   Overcast
9:56 AM 62.1 °F 59.0 °F 90% 30.00 in 10.0 mi ENE 10.4 mph - N/A   Overcast
10:35 AM 62.6 °F 59.0 °F 88% 29.99 in 10.0 mi ENE 9.2 mph - N/A   Overcast
10:56 AM 63.0 °F 59.0 °F 87% 29.98 in 10.0 mi ENE 11.5 mph - N/A   Overcast
11:11 AM 62.6 °F 60.8 °F 94% 29.96 in 6.0 mi East 10.4 mph - 0.00 in Rain Rain
11:16 AM 62.6 °F 60.8 °F 94% 29.96 in 7.0 mi East 9.2 mph - 0.00 in Rain Light Rain
11:32 AM 62.6 °F 60.8 °F 94% 29.95 in 10.0 mi East 11.5 mph - 0.00 in   Overcast
11:51 AM 62.6 °F 60.8 °F 94% 29.94 in 10.0 mi East 10.4 mph - 0.00 in Rain Light Rain
11:57 AM 62.6 °F 60.8 °F 94% 29.93 in 10.0 mi ESE 12.7 mph 18.4 mph N/A   Overcast
12:06 PM 62.6 °F 60.8 °F 94% 29.92 in 10.0 mi East 11.5 mph - 0.00 in Rain Light Rain
12:26 PM 62.6 °F 60.8 °F 94% 29.91 in 10.0 mi ESE 15.0 mph - 0.00 in   Overcast
12:56 PM 64.0 °F 62.1 °F 93% 29.89 in 10.0 mi ESE 17.3 mph - 0.00 in   Overcast
1:24 PM 64.4 °F 62.6 °F 94% 29.85 in 10.0 mi East 15.0 mph - N/A   Overcast
1:56 PM 64.0 °F 62.1 °F 93% 29.83 in 10.0 mi ESE 12.7 mph - N/A   Overcast
2:34 PM 64.4 °F 62.6 °F 94% 29.80 in 5.0 mi SE 13.8 mph - 0.00 in Rain Light Rain
2:41 PM 64.4 °F 64.4 °F 100% 29.79 in 5.0 mi SE 16.1 mph - 0.00 in Rain Light Rain
2:56 PM 66.0 °F 64.9 °F 96% 29.79 in 5.0 mi SE 16.1 mph - 0.00 in   Overcast
3:25 PM 66.2 °F 66.2 °F 100% 29.78 in 5.0 mi South 15.0 mph 27.6 mph 0.00 in Rain Light Rain
3:56 PM 69.1 °F 68.0 °F 96% 29.80 in 6.0 mi SSW 15.0 mph - 0.01 in   Overcast
4:56 PM 68.0 °F 66.9 °F 96% 29.80 in 6.0 mi SSW 13.8 mph - N/A   Overcast
5:34 PM 69.8 °F 68.0 °F 94% 29.79 in 5.0 mi SSW 18.4 mph 25.3 mph 0.00 in Rain Light Rain
5:56 PM 69.1 °F 68.0 °F 96% 29.80 in 7.0 mi SSW 15.0 mph 21.9 mph 0.00 in Rain Light Rain
6:56 PM 68.0 °F 66.9 °F 96% 29.81 in 7.0 mi SW 17.3 mph - N/A   Overcast
7:32 PM 69.8 °F 66.2 °F 88% 29.80 in 7.0 mi SW 13.8 mph 21.9 mph N/A   Overcast
7:56 PM 68.0 °F 66.9 °F 96% 29.80 in 6.0 mi SW 12.7 mph - N/A   Overcast
8:56 PM 68.0 °F 66.9 °F 96% 29.81 in 6.0 mi SW 16.1 mph 23.0 mph N/A   Overcast
9:56 PM 68.0 °F 66.9 °F 96% 29.81 in 6.0 mi SW 10.4 mph 17.3 mph 0.00 in Rain Light Rain
10:56 PM 69.1 °F 68.0 °F 96% 29.80 in 7.0 mi SW 13.8 mph 20.7 mph 0.00 in   Overcast
11:15 PM 51.8 °F 35.6 °F 54% - - North - - N/A   Unknown
11:56 PM 69.1 °F 68.0 °F 96% 29.81 in 6.0 mi WSW 12.7 mph 20.7 mph N/A   Overcast